#Datum;Uhrzeit;WR;Pac;DaySum;Status;WR;Pac;DaySum;Status;Pdc1;Udc;Temp;WR;Pac;DaySum;Status;Pdc1;Udc;Temp;WR;Pac;DaySum;Status;Pdc1;Udc;Temp;WR;Pac;DaySum;Status;Pdc1;Pdc2;Udc1;Udc2;Temp;WR;Pac;DaySum;Status;Pdc1;Pdc2;Udc1;Udc2;Temp;WR;Pac;DaySum;Status;Pdc1;Udc;Temp;WR;Pac;DaySum;Status;Pdc1;Udc;Temp;WR;Pac;DaySum;Status;Pdc1;Udc;Temp
15.02.19;23:55:00;1;494;10002;0;2;0;23178;0;0;0;0;3;0;15097;0;0;0;0;4;0;20480;0;0;0;0;5;0;55338;0;0;0;0;0;0;6;0;42412;0;0;0;0;0;0;7;0;37269;0;0;0;0;8;0;36319;0;0;0;0;9;0;19601;0;0;0;0
15.02.19;23:50:00;1;281;9951;0;2;0;23178;0;0;0;0;3;0;15097;0;0;0;0;4;0;20480;0;0;0;0;5;0;55338;0;0;0;0;0;0;6;0;42412;0;0;0;0;0;0;7;0;37269;0;0;0;0;8;0;36319;0;0;0;0;9;0;19601;0;0;0;0
15.02.19;23:45:00;1;282;9928;0;2;0;23178;0;0;0;0;3;0;15097;0;0;0;0;4;0;20480;0;0;0;0;5;0;55338;0;0;0;0;0;0;6;0;42412;0;0;0;0;0;0;7;0;37269;0;0;0;0;8;0;36319;0;0;0;0;9;0;19601;0;0;0;0
15.02.19;23:40:00;1;282;9904;0;2;0;23178;0;0;0;0;3;0;15097;0;0;0;0;4;0;20480;0;0;0;0;5;0;55338;0;0;0;0;0;0;6;0;42412;0;0;0;0;0;0;7;0;37269;0;0;0;0;8;0;36319;0;0;0;0;9;0;19601;0;0;0;0
15.02.19;23:35:00;1;484;9881;0;2;0;23178;0;0;0;0;3;0;15097;0;0;0;0;4;0;20480;0;0;0;0;5;0;55338;0;0;0;0;0;0;6;0;42412;0;0;0;0;0;0;7;0;37269;0;0;0;0;8;0;36319;0;0;0;0;9;0;19601;0;0;0;0
15.02.19;23:30:00;1;251;9828;0;2;0;23178;0;0;0;0;3;0;15097;0;0;0;0;4;0;20480;0;0;0;0;5;0;55338;0;0;0;0;0;0;6;0;42412;0;0;0;0;0;0;7;0;37269;0;0;0;0;8;0;36319;0;0;0;0;9;0;19601;0;0;0;0
15.02.19;23:25:00;1;220;9808;0;2;0;23178;0;0;0;0;3;0;15097;0;0;0;0;4;0;20480;0;0;0;0;5;0;55338;0;0;0;0;0;0;6;0;42412;0;0;0;0;0;0;7;0;37269;0;0;0;0;8;0;36319;0;0;0;0;9;0;19601;0;0;0;0
15.02.19;23:20:00;1;221;9790;0;2;0;23178;0;0;0;0;3;0;15097;0;0;0;0;4;0;20480;0;0;0;0;5;0;55338;0;0;0;0;0;0;6;0;42412;0;0;0;0;0;0;7;0;37269;0;0;0;0;8;0;36319;0;0;0;0;9;0;19601;0;0;0;0
15.02.19;23:15:00;1;226;9771;0;2;0;23178;0;0;0;0;3;0;15097;0;0;0;0;4;0;20480;0;0;0;0;5;0;55338;0;0;0;0;0;0;6;0;42412;0;0;0;0;0;0;7;0;37269;0;0;0;0;8;0;36319;0;0;0;0;9;0;19601;0;0;0;0
15.02.19;23:10:00;1;620;9737;0;2;0;23178;0;0;0;0;3;0;15097;0;0;0;0;4;0;20480;0;0;0;0;5;0;55338;0;0;0;0;0;0;6;0;42412;0;0;0;0;0;0;7;0;37269;0;0;0;0;8;0;36319;0;0;0;0;9;0;19601;0;0;0;0
15.02.19;23:05:00;1;283;9703;0;2;0;23178;0;0;0;0;3;0;15097;0;0;0;0;4;0;20480;0;0;0;0;5;0;55338;0;0;0;0;0;0;6;0;42412;0;0;0;0;0;0;7;0;37269;0;0;0;0;8;0;36319;0;0;0;0;9;0;19601;0;0;0;0
15.02.19;23:00:00;1;295;9679;0;2;0;23178;0;0;0;0;3;0;15097;0;0;0;0;4;0;20480;0;0;0;0;5;0;55338;0;0;0;0;0;0;6;0;42412;0;0;0;0;0;0;7;0;37269;0;0;0;0;8;0;36319;0;0;0;0;9;0;19601;0;0;0;0
15.02.19;22:55:00;1;291;9653;0;2;0;23178;0;0;0;0;3;0;15097;0;0;0;0;4;0;20480;0;0;0;0;5;0;55338;2;0;0;0;0;0;6;0;42412;2;0;0;0;0;0;7;0;37269;0;0;0;0;8;0;36319;0;0;0;0;9;0;19601;0;0;0;0
15.02.19;22:50:00;1;595;9629;0;2;0;23178;0;0;0;0;3;0;15097;0;0;0;0;4;0;20480;0;0;0;0;5;0;55338;2;0;0;0;0;0;6;0;42412;2;0;0;0;0;0;7;0;37269;0;0;0;0;8;0;36319;0;0;0;0;9;0;19601;0;0;0;0
15.02.19;22:45:00;1;238;9581;0;2;0;23178;0;0;0;0;3;0;15097;0;0;0;0;4;0;20480;0;0;0;0;5;0;55338;2;0;0;0;0;0;6;0;42412;2;0;0;0;0;0;7;0;37269;0;0;0;0;8;0;36319;0;0;0;0;9;0;19601;0;0;0;0
15.02.19;22:40:00;1;264;9561;0;2;0;23178;0;0;0;0;3;0;15097;0;0;0;0;4;0;20480;0;0;0;0;5;0;55338;2;0;0;0;0;0;6;0;42412;2;0;0;0;0;0;7;0;37269;0;0;0;0;8;0;36319;0;0;0;0;9;0;19601;0;0;0;0
15.02.19;22:35:00;1;208;9540;0;2;0;23178;0;0;0;0;3;0;15097;0;0;0;0;4;0;20480;0;0;0;0;5;0;55338;2;0;0;0;0;0;6;0;42412;2;0;0;0;0;0;7;0;37269;0;0;0;0;8;0;36319;0;0;0;0;9;0;19601;0;0;0;0
15.02.19;22:30:00;1;387;9522;0;2;0;23178;0;0;0;0;3;0;15097;0;0;0;0;4;0;20480;0;0;0;0;5;0;55338;2;0;0;0;0;0;6;0;42412;2;0;0;0;0;0;7;0;37269;0;0;0;0;8;0;36319;0;0;0;0;9;0;19601;0;0;0;0
15.02.19;22:25:00;1;207;9477;0;2;0;23178;0;0;0;0;3;0;15097;0;0;0;0;4;0;20480;0;0;0;0;5;0;55338;2;0;0;0;0;0;6;0;42412;2;0;0;0;0;0;7;0;37269;0;0;0;0;8;0;36319;0;0;0;0;9;0;19601;0;0;0;0
15.02.19;22:20:00;1;207;9460;0;2;0;23178;0;0;0;0;3;0;15097;0;0;0;0;4;0;20480;0;0;0;0;5;0;55338;2;0;0;0;0;0;6;0;42412;2;0;0;0;0;0;7;0;37269;0;0;0;0;8;0;36319;0;0;0;0;9;0;19601;0;0;0;0
15.02.19;22:15:00;1;229;9443;0;2;0;23178;0;0;0;0;3;0;15097;0;0;0;0;4;0;20480;0;0;0;0;5;0;55338;2;0;0;0;0;0;6;0;42412;2;0;0;0;0;0;7;0;37269;0;0;0;0;8;0;36319;0;0;0;0;9;0;19601;0;0;0;0
15.02.19;22:10:00;1;249;9423;0;2;0;23178;0;0;0;0;3;0;15097;0;0;0;0;4;0;20480;0;0;0;0;5;0;55338;2;0;0;0;0;0;6;0;42412;2;0;0;0;0;0;7;0;37269;0;0;0;0;8;0;36319;0;0;0;0;9;0;19601;0;0;0;0
15.02.19;22:05:00;1;656;9402;0;2;0;23178;0;0;0;0;3;0;15097;0;0;0;0;4;0;20480;0;0;0;0;5;0;55338;2;0;0;0;0;0;6;0;42412;2;0;0;0;0;0;7;0;37269;0;0;0;0;8;0;36319;0;0;0;0;9;0;19601;0;0;0;0
15.02.19;22:00:00;1;208;9353;0;2;0;23178;0;0;0;0;3;0;15097;0;0;0;0;4;0;20480;0;0;0;0;5;0;55338;2;0;0;0;0;0;6;0;42412;2;0;0;0;0;0;7;0;37269;0;0;0;0;8;0;36319;0;0;0;0;9;0;19601;0;0;0;0
15.02.19;21:55:00;1;209;9335;0;2;0;23178;0;0;0;0;3;0;15097;0;0;0;0;4;0;20480;0;0;0;0;5;0;55338;2;0;0;0;0;0;6;0;42412;2;0;0;0;0;0;7;0;37269;0;0;0;0;8;0;36319;0;0;0;0;9;0;19601;0;0;0;0
15.02.19;21:50:00;1;240;9318;0;2;0;23178;0;0;0;0;3;0;15097;0;0;0;0;4;0;20480;0;0;0;0;5;0;55338;2;0;0;0;0;0;6;0;42412;2;0;0;0;0;0;7;0;37269;0;0;0;0;8;0;36319;0;0;0;0;9;0;19601;0;0;0;0
15.02.19;21:45:00;1;475;9297;0;2;0;23178;0;0;0;0;3;0;15097;0;0;0;0;4;0;20480;0;0;0;0;5;0;55338;2;0;0;0;0;0;6;0;42412;2;0;0;0;0;0;7;0;37269;0;0;0;0;8;0;36319;0;0;0;0;9;0;19601;0;0;0;0
15.02.19;21:40:00;1;272;9248;0;2;0;23178;0;0;0;0;3;0;15097;0;0;0;0;4;0;20480;0;0;0;0;5;0;55338;2;0;0;0;0;0;6;0;42412;2;0;0;0;0;0;7;0;37269;0;0;0;0;8;0;36319;0;0;0;0;9;0;19601;0;0;0;0
15.02.19;21:35:00;1;273;9225;0;2;0;23178;0;0;0;0;3;0;15097;0;0;0;0;4;0;20480;0;0;0;0;5;0;55338;2;0;0;0;0;0;6;0;42412;2;0;0;0;0;0;7;0;37269;0;0;0;0;8;0;36319;0;0;0;0;9;0;19601;0;0;0;0
15.02.19;21:30:00;1;274;9202;0;2;0;23178;0;0;0;0;3;0;15097;0;0;0;0;4;0;20480;0;0;0;0;5;0;55338;2;0;0;0;0;0;6;0;42412;2;0;0;0;0;0;7;0;37269;0;0;0;0;8;0;36319;0;0;0;0;9;0;19601;0;0;0;0
15.02.19;21:25:00;1;301;9179;0;2;0;23178;0;0;0;0;3;0;15097;0;0;0;0;4;0;20480;0;0;0;0;5;0;55338;2;0;0;0;0;0;6;0;42412;2;0;0;0;0;0;7;0;37269;0;0;0;0;8;0;36319;0;0;0;0;9;0;19601;0;0;0;0
15.02.19;21:20:00;1;484;9137;0;2;0;23178;0;0;0;0;3;0;15097;0;0;0;0;4;0;20480;0;0;0;0;5;0;55338;2;0;0;0;0;0;6;0;42412;2;0;0;0;0;0;7;0;37269;0;0;0;0;8;0;36319;0;0;0;0;9;0;19601;0;0;0;0
15.02.19;21:15:00;1;289;9106;0;2;0;23178;0;0;0;0;3;0;15097;0;0;0;0;4;0;20480;0;0;0;0;5;0;55338;2;0;0;0;0;0;6;0;42412;2;0;0;0;0;0;7;0;37269;0;0;0;0;8;0;36319;0;0;0;0;9;0;19601;0;0;0;0
15.02.19;21:10:00;1;254;9082;0;2;0;23178;0;0;0;0;3;0;15097;0;0;0;0;4;0;20480;0;0;0;0;5;0;55338;2;0;0;0;0;0;6;0;42412;2;0;0;0;0;0;7;0;37269;0;0;0;0;8;0;36319;0;0;0;0;9;0;19601;0;0;0;0
15.02.19;21:05:00;1;230;9061;0;2;0;23178;0;0;0;0;3;0;15097;0;0;0;0;4;0;20480;0;0;0;0;5;0;55338;2;0;0;0;0;0;6;0;42412;2;0;0;0;0;0;7;0;37269;0;0;0;0;8;0;36319;0;0;0;0;9;0;19601;0;0;0;0
15.02.19;21:00:00;1;691;9042;0;2;0;23178;0;0;0;0;3;0;15097;0;0;0;0;4;0;20480;0;0;0;0;5;0;55338;2;0;0;0;0;0;6;0;42412;2;0;0;0;0;0;7;0;37269;0;0;0;0;8;0;36319;0;0;0;0;9;0;19601;0;0;0;0
15.02.19;20:55:00;1;210;8996;0;2;0;23178;0;0;0;0;3;0;15097;0;0;0;0;4;0;20480;0;0;0;0;5;0;55338;2;0;0;0;0;0;6;0;42412;2;0;0;0;0;0;7;0;37269;0;0;0;0;8;0;36319;0;0;0;0;9;0;19601;0;0;0;0
15.02.19;20:50:00;1;210;8978;0;2;0;23178;0;0;0;0;3;0;15097;0;0;0;0;4;0;20480;0;0;0;0;5;0;55338;2;0;0;0;0;0;6;0;42412;2;0;0;0;0;0;7;0;37269;0;0;0;0;8;0;36319;0;0;0;0;9;0;19601;0;0;0;0
15.02.19;20:45:00;1;210;8961;0;2;0;23178;0;0;0;0;3;0;15097;0;0;0;0;4;0;20480;0;0;0;0;5;0;55338;2;0;0;0;0;0;6;0;42412;2;0;0;0;0;0;7;0;37269;0;0;0;0;8;0;36319;0;0;0;0;9;0;19601;0;0;0;0
15.02.19;20:40:00;1;389;8943;0;2;0;23178;0;0;0;0;3;0;15097;0;0;0;0;4;0;20480;0;0;0;0;5;0;55338;2;0;0;0;0;0;6;0;42412;2;0;0;0;0;0;7;0;37269;0;0;0;0;8;0;36319;0;0;0;0;9;0;19601;0;0;0;0
15.02.19;20:35:00;1;209;8898;0;2;0;23178;0;0;0;0;3;0;15097;0;0;0;0;4;0;20480;0;0;0;0;5;0;55338;2;0;0;0;0;0;6;0;42412;2;0;0;0;0;0;7;0;37269;0;0;0;0;8;0;36319;0;0;0;0;9;0;19601;0;0;0;0
15.02.19;20:30:00;1;208;8880;0;2;0;23178;0;0;0;0;3;0;15097;0;0;0;0;4;0;20480;0;0;0;0;5;0;55338;2;0;0;0;0;0;6;0;42412;2;0;0;0;0;0;7;0;37269;0;0;0;0;8;0;36319;0;0;0;0;9;0;19601;0;0;0;0
15.02.19;20:25:00;1;209;8863;0;2;0;23178;0;0;0;0;3;0;15097;0;0;0;0;4;0;20480;0;0;0;0;5;0;55338;2;0;0;0;0;0;6;0;42412;2;0;0;0;0;0;7;0;37269;0;0;0;0;8;0;36319;0;0;0;0;9;0;19601;0;0;0;0
15.02.19;20:20:00;1;250;8845;0;2;0;23178;0;0;0;0;3;0;15097;0;0;0;0;4;0;20480;0;0;0;0;5;0;55338;2;0;0;0;0;0;6;0;42412;2;0;0;0;0;0;7;0;37269;0;0;0;0;8;0;36319;0;0;0;0;9;0;19601;0;0;0;0
15.02.19;20:15:00;1;1071;8825;0;2;0;23178;0;0;0;0;3;0;15097;0;0;0;0;4;0;20480;0;0;0;0;5;0;55338;2;0;0;0;0;0;6;0;42412;2;0;0;0;0;0;7;0;37269;0;0;0;0;8;0;36319;0;0;0;0;9;0;19601;0;0;0;0
15.02.19;20:10:00;1;249;8776;0;2;0;23178;0;0;0;0;3;0;15097;0;0;0;0;4;0;20480;0;0;0;0;5;0;55338;2;0;0;0;0;0;6;0;42412;2;0;0;0;0;0;7;0;37269;0;0;0;0;8;0;36319;0;0;0;0;9;0;19601;0;0;0;0
15.02.19;20:05:00;1;210;8755;0;2;0;23178;0;0;0;0;3;0;15097;0;0;0;0;4;0;20480;0;0;0;0;5;0;55338;2;0;0;0;0;0;6;0;42412;2;0;0;0;0;0;7;0;37269;0;0;0;0;8;0;36319;0;0;0;0;9;0;19601;0;0;0;0
15.02.19;20:00:00;1;210;8738;0;2;0;23178;0;0;0;0;3;0;15097;0;0;0;0;4;0;20480;0;0;0;0;5;0;55338;2;0;0;0;0;0;6;0;42412;2;0;0;0;0;0;7;0;37269;0;0;0;0;8;0;36319;0;0;0;0;9;0;19601;0;0;0;0
15.02.19;19:55:00;1;418;8720;0;2;0;23178;0;0;0;0;3;0;15097;0;0;0;0;4;0;20480;0;0;0;0;5;0;55338;2;0;0;0;0;0;6;0;42412;2;0;0;0;0;0;7;0;37269;0;0;0;0;8;0;36319;0;0;0;0;9;0;19601;0;0;0;0
15.02.19;19:50:00;1;210;8675;0;2;0;23178;0;0;0;0;3;0;15097;0;0;0;0;4;0;20480;0;0;0;0;5;0;55338;2;0;0;0;0;0;6;0;42412;2;0;0;0;0;0;7;0;37269;0;0;0;0;8;0;36319;0;0;0;0;9;0;19601;0;0;0;0
15.02.19;19:45:00;1;209;8657;0;2;0;23178;0;0;0;0;3;0;15097;0;0;0;0;4;0;20480;0;0;0;0;5;0;55338;2;0;0;0;0;0;6;0;42412;2;0;0;0;0;0;7;0;37269;0;0;0;0;8;0;36319;0;0;0;0;9;0;19601;0;0;0;0
15.02.19;19:40:00;1;210;8640;0;2;0;23178;0;0;0;0;3;0;15097;0;0;0;0;4;0;20480;0;0;0;0;5;0;55338;2;0;0;0;0;0;6;0;42412;2;0;0;0;0;0;7;0;37269;0;0;0;0;8;0;36319;0;0;0;0;9;0;19601;0;0;0;0
15.02.19;19:35:00;1;218;8622;0;2;0;23178;0;0;0;0;3;0;15097;0;0;0;0;4;0;20480;0;0;0;0;5;0;55338;2;0;0;0;0;0;6;0;42412;2;0;0;0;0;0;7;0;37269;0;0;0;0;8;0;36319;0;0;0;0;9;0;19601;0;0;0;0
15.02.19;19:30:00;1;635;8603;0;2;0;23178;0;0;0;0;3;0;15097;0;0;0;0;4;0;20480;0;0;0;0;5;0;55338;2;0;0;0;0;0;6;0;42412;2;0;0;0;0;0;7;0;37269;0;0;0;0;8;0;36319;0;0;0;0;9;0;19601;0;0;0;0
15.02.19;19:25:00;1;299;8554;0;2;0;23178;0;0;0;0;3;0;15097;0;0;0;0;4;0;20480;0;0;0;0;5;0;55338;2;0;0;0;0;0;6;0;42412;2;0;0;0;0;0;7;0;37269;0;0;0;0;8;0;36319;0;0;0;0;9;0;19601;0;0;0;0
15.02.19;19:20:00;1;316;8528;0;2;0;23178;0;0;0;0;3;0;15097;0;0;0;0;4;0;20480;0;0;0;0;5;0;55338;2;0;0;0;0;0;6;0;42412;2;0;0;0;0;0;7;0;37269;0;0;0;0;8;0;36319;0;0;0;0;9;0;19601;0;0;0;0
15.02.19;19:15:00;1;366;8502;0;2;0;23178;0;0;0;0;3;0;15097;0;0;0;0;4;0;20480;0;0;0;0;5;0;55338;2;0;0;0;0;0;6;0;42412;2;0;0;0;0;0;7;0;37269;0;0;0;0;8;0;36319;0;0;0;0;9;0;19601;0;0;0;0
15.02.19;19:10:00;1;714;8475;0;2;0;23178;0;0;0;0;3;0;15097;0;0;0;0;4;0;20480;0;0;0;0;5;0;55338;2;0;0;0;0;0;6;0;42412;2;0;0;0;0;0;7;0;37269;0;0;0;0;8;0;36319;0;0;0;0;9;0;19601;0;0;0;0
15.02.19;19:05:00;1;274;8425;0;2;0;23178;0;0;0;0;3;0;15097;0;0;0;0;4;0;20480;0;0;0;0;5;0;55338;2;0;0;0;0;0;6;0;42412;2;0;0;0;0;0;7;0;37269;0;0;0;0;8;0;36319;0;0;0;0;9;0;19601;0;0;0;0
15.02.19;19:00:00;1;258;8402;0;2;0;23178;0;0;0;0;3;0;15097;0;0;0;0;4;0;20480;0;0;0;0;5;0;55338;2;0;0;0;0;0;6;0;42412;2;0;0;0;0;0;7;0;37269;0;0;0;0;8;0;36319;0;0;0;0;9;0;19601;0;0;0;0
15.02.19;18:55:00;1;209;8381;0;2;0;23178;0;0;0;0;3;0;15097;0;0;0;0;4;0;20480;0;0;0;0;5;0;55338;2;0;0;0;0;0;6;0;42412;2;0;0;0;0;0;7;0;37269;0;0;0;0;8;0;36319;0;0;0;0;9;0;19601;0;0;0;0
15.02.19;18:50:00;1;232;8363;0;2;0;23178;0;0;0;0;3;0;15097;0;0;0;0;4;0;20480;0;0;0;0;5;0;55338;2;0;0;0;0;0;6;0;42412;2;0;0;0;0;0;7;0;37269;0;0;0;0;8;0;36319;0;0;0;0;9;0;19601;0;0;0;0
15.02.19;18:45:00;1;421;8326;0;2;0;23178;0;0;0;0;3;0;15097;0;0;0;0;4;0;20480;0;0;0;0;5;0;55338;2;0;0;0;0;0;6;0;42412;2;0;0;0;0;0;7;0;37269;0;0;0;0;8;0;36319;0;0;0;0;9;0;19601;0;0;0;0
15.02.19;18:40:00;1;235;8301;0;2;0;23178;0;0;0;0;3;0;15097;0;0;0;0;4;0;20480;0;0;0;0;5;0;55338;2;0;0;0;0;0;6;0;42412;2;0;0;0;0;0;7;0;37269;0;0;0;0;8;0;36319;0;0;0;0;9;0;19601;0;0;0;0
15.02.19;18:35:00;1;236;8281;0;2;0;23178;0;0;0;0;3;0;15097;0;0;0;0;4;0;20480;0;0;0;0;5;0;55338;2;0;0;0;0;0;6;0;42412;2;0;0;0;0;0;7;0;37269;0;0;0;0;8;0;36319;0;0;0;0;9;0;19601;0;0;0;0
15.02.19;18:30:00;1;229;8262;0;2;0;23178;0;0;0;0;3;0;15097;0;0;0;0;4;0;20480;0;0;0;0;5;0;55338;2;0;0;0;0;0;6;0;42412;2;0;0;0;0;0;7;0;37269;0;0;0;0;8;0;36319;0;0;0;0;9;0;19601;0;0;0;0
15.02.19;18:25:00;1;710;8242;0;2;0;23178;0;0;0;0;3;0;15097;0;0;0;0;4;0;20480;0;0;0;0;5;0;55338;2;0;0;0;0;0;6;0;42412;2;0;0;0;0;0;7;0;37269;0;0;0;0;8;0;36319;0;0;0;0;9;0;19601;0;0;0;0
15.02.19;18:20:00;1;258;8194;0;2;0;23178;0;0;0;0;3;0;15097;0;0;0;0;4;0;20480;0;0;0;0;5;0;55338;2;0;0;0;0;0;6;0;42412;2;0;0;0;0;0;7;0;37269;0;0;0;0;8;0;36319;0;0;0;0;9;0;19601;0;0;0;0
15.02.19;18:15:00;1;312;8172;0;2;0;23178;0;0;0;0;3;0;15097;0;0;0;0;4;0;20480;0;0;0;0;5;0;55338;2;0;0;0;0;0;6;0;42412;2;0;0;0;0;0;7;0;37269;0;0;0;0;8;0;36319;0;0;0;0;9;0;19601;0;0;0;0
15.02.19;18:10:00;1;236;8151;0;2;0;23178;0;0;0;0;3;0;15097;0;0;0;0;4;0;20480;0;0;0;0;5;0;55338;2;0;0;0;0;0;6;0;42412;2;0;0;0;0;0;7;0;37269;0;0;0;0;8;0;36319;0;0;0;0;9;0;19601;0;0;0;0
15.02.19;18:05:00;1;527;8131;0;2;0;23178;0;0;0;0;3;0;15097;0;0;0;0;4;0;20480;0;0;0;0;5;0;55338;2;0;0;0;0;0;6;0;42412;2;0;0;0;0;0;7;0;37269;0;0;0;0;8;0;36319;0;0;0;0;9;0;19601;0;0;0;0
15.02.19;18:00:00;1;236;8084;0;2;0;23178;0;0;0;0;3;0;15097;0;0;36;2;4;0;20480;0;0;0;0;5;0;55338;2;0;0;0;0;0;6;0;42412;2;0;0;0;0;0;7;0;37269;0;0;0;0;8;0;36319;0;0;0;0;9;0;19601;0;0;0;0
15.02.19;17:55:00;1;236;8065;0;2;0;23178;0;0;226;14;3;0;15097;6;0;295;19;4;0;20480;0;0;0;0;5;0;55338;2;0;0;0;0;0;6;0;42412;2;0;0;0;0;0;7;0;37269;0;0;0;0;8;0;36319;0;0;0;0;9;0;19601;0;0;0;0
15.02.19;17:50:00;1;242;8045;0;2;0;23178;6;0;314;18;3;0;15097;6;0;374;20;4;0;20480;0;0;61;13;5;0;55338;2;0;0;0;0;0;6;0;42412;2;0;0;0;0;0;7;0;37269;0;0;0;0;8;0;36319;0;0;0;0;9;0;19601;0;0;0;0
15.02.19;17:45:00;1;292;8024;0;2;0;23178;6;0;348;19;3;0;15097;6;2;419;20;4;0;20480;1;0;107;16;5;0;55338;1;0;0;250;259;20;6;0;42412;1;5;1;143;289;19;7;0;37269;0;0;104;7;8;0;36319;0;0;101;7;9;0;19601;0;0;104;5
15.02.19;17:40:00;1;250;7975;0;2;0;23178;6;0;374;19;3;0;15097;6;0;458;21;4;0;20480;1;0;153;17;5;0;55338;26;0;0;393;432;26;6;0;42412;23;1;10;486;232;25;7;0;37269;6;0;321;19;8;0;36319;6;0;317;18;9;0;19601;6;0;321;13
15.02.19;17:35:00;1;1519;7941;0;2;0;23178;6;0;391;20;3;2;15097;3;7;444;21;4;0;20480;1;0;196;17;5;15;55338;1;0;0;398;611;27;6;0;42412;23;5;2;259;487;25;7;0;37269;6;0;395;20;8;0;36319;6;0;394;19;9;0;19601;6;0;396;14
15.02.19;17:30:00;1;334;7833;0;2;0;23178;6;0;403;21;3;0;15097;6;4;494;22;4;0;20480;3;0;201;18;5;35;55337;1;0;5;407;646;27;6;7;42412;23;3;7;499;561;26;7;1;37269;3;3;411;20;8;0;36319;6;1;430;19;9;0;19601;6;1;458;14
15.02.19;17:25:00;1;323;7805;0;2;0;23178;6;0;412;22;3;1;15097;6;7;502;22;4;0;20480;3;0;222;19;5;88;55334;4;8;12;387;614;28;6;59;42411;4;30;54;459;468;27;7;0;37269;6;4;449;21;8;0;36319;6;0;477;20;9;2;19601;6;5;463;14
15.02.19;17:20:00;1;577;7763;0;2;132;23178;6;164;371;23;3;62;15097;6;84;467;23;4;41;20480;3;42;200;19;5;114;55326;4;27;23;387;614;29;6;75;42406;4;27;40;459;468;27;7;3;37269;6;7;470;22;8;3;36319;4;12;450;21;9;1;19601;6;3;518;15
15.02.19;17:15:00;1;431;7722;0;2;294;23167;4;338;397;24;3;191;15092;4;230;427;24;4;233;20477;5;242;210;20;5;153;55317;4;44;43;387;614;29;6;112;42399;4;37;59;459;468;27;7;32;37269;6;55;389;23;8;6;36319;3;12;473;21;9;0;19601;4;5;521;15
15.02.19;17:10:00;1;464;7685;0;2;445;23143;4;497;389;25;3;294;15076;4;339;432;24;4;430;20457;5;448;208;20;5;259;55303;4;116;75;387;614;29;6;191;42389;4;106;149;459;468;27;7;202;37267;4;237;399;23;8;54;36318;4;83;365;22;9;7;19601;3;13;512;16
15.02.19;17:05:00;1;272;7651;0;2;558;23106;4;611;361;26;3;432;15052;4;480;431;25;4;532;20422;5;554;214;20;5;366;55281;4;190;110;395;614;29;6;284;42373;4;142;183;459;521;27;7;551;37251;4;594;384;24;8;97;36314;4;124;357;22;9;6;19600;6;11;542;16
15.02.19;17:00:00;1;655;7628;0;2;714;23060;4;769;356;27;3;498;15016;4;550;433;26;4;593;20378;5;617;205;21;5;487;55250;4;265;159;410;583;29;6;424;42348;4;182;214;573;563;28;7;737;37205;4;789;400;24;8;191;36306;4;226;407;23;9;6;19600;6;10;554;17
15.02.19;16:55:00;1;275;7578;0;2;884;23000;4;944;351;28;3;593;14975;4;648;436;26;4;654;20328;5;681;199;21;5;682;55209;4;347;257;422;583;30;6;549;42312;4;293;323;586;574;28;7;1087;37144;4;1137;465;25;8;305;36290;4;347;467;24;9;18;19600;6;28;520;17
15.02.19;16:50:00;1;286;7555;0;2;1084;22927;4;1152;354;29;3;695;14925;4;753;432;27;4;719;20275;5;749;200;21;5;888;55151;4;440;353;420;645;30;6;691;42266;4;329;365;599;575;28;7;1483;37055;4;1559;481;25;8;405;36265;4;445;424;24;9;9;19598;6;13;562;18
15.02.19;16:45:00;1;236;7531;0;2;1228;22838;4;1303;353;30;3;755;14868;4;813;425;27;4;747;20215;5;778;212;21;5;1096;55076;4;558;449;423;686;30;6;832;42207;4;401;424;601;574;28;7;1785;36933;4;1885;478;26;8;467;36232;4;508;377;25;9;54;19598;6;73;470;19
15.02.19;16:40:00;1;220;7511;0;2;1453;22735;4;1532;352;31;3;834;14805;4;896;434;27;4;788;20152;5;821;220;22;5;1299;54984;4;653;546;423;683;31;6;1011;42136;4;503;523;600;577;28;7;1992;36784;4;2097;472;26;8;845;36192;4;893;356;26;9;75;19594;4;104;451;19
15.02.19;16:35:00;1;549;7493;0;2;1679;22614;4;1777;383;32;3;923;14736;4;988;430;28;4;840;20087;5;875;203;22;5;1515;54874;4;763;640;421;689;31;6;1170;42051;4;586;608;603;579;28;7;2178;36618;4;2290;476;27;8;1321;36123;4;1391;360;26;9;86;19587;4;115;472;20
15.02.19;16:30:00;1;261;7447;0;2;1851;22475;4;1954;388;33;3;1013;14659;4;1079;418;28;4;939;20017;5;978;201;22;5;1752;54747;4;886;742;423;685;31;6;1342;41953;4;672;702;598;580;29;7;2371;36437;4;2483;477;27;8;1847;36014;4;1935;420;27;9;91;19580;4;117;422;21
15.02.19;16:25:00;1;284;7425;0;2;1958;22322;4;2070;394;34;3;1072;14575;4;1143;422;29;4;958;19939;5;997;201;22;5;1937;54601;4;1004;833;428;688;31;6;1501;41840;4;725;738;600;574;29;7;2546;36240;4;2663;472;28;8;2287;35862;4;2397;446;27;9;132;19572;4;161;358;22
15.02.19;16:20:00;1;283;7402;0;2;2078;22159;4;2193;387;35;3;1144;14486;4;1216;415;29;4;971;19859;5;1012;204;22;5;2166;54437;4;1127;938;429;686;32;6;1682;41714;4;822;836;596;580;29;7;2711;36029;4;2842;468;28;8;2570;35672;4;2698;461;28;9;534;19562;4;576;358;23
15.02.19;16:15:00;1;501;7381;0;2;2179;21986;4;2301;387;35;3;1211;14390;4;1284;417;29;4;1005;19778;5;1047;201;23;5;2414;54254;4;1275;1047;426;687;32;6;1857;41573;4;945;950;598;573;29;7;2861;35803;4;3008;471;28;8;2790;35459;4;2931;470;28;9;970;19518;4;1026;359;24
15.02.19;16:10:00;1;266;7335;0;2;2247;21804;4;2374;383;36;3;1295;14290;4;1373;422;30;4;1036;19694;5;1079;200;23;5;2638;54051;4;1389;1150;429;689;32;6;2029;41417;4;1042;1046;593;573;29;7;3031;35565;4;3179;468;29;8;2977;35226;4;3126;469;29;9;1174;19438;4;1240;384;25
15.02.19;16:05:00;1;277;7312;0;2;2422;21618;4;2554;381;37;3;1361;14182;4;1439;419;30;4;990;19608;5;1032;200;23;5;2865;53831;4;1517;1238;425;684;33;6;2199;41248;4;1111;1089;595;572;29;7;3176;35313;4;3331;464;29;8;3119;34979;4;3272;465;29;9;1363;19341;4;1439;412;26
15.02.19;16:00:00;1;277;7289;0;2;2514;21416;4;2650;378;37;3;1408;14069;4;1489;414;30;4;955;19525;5;994;200;23;5;3088;53590;4;1664;1339;423;686;33;6;2374;41064;4;1220;1201;591;571;30;7;3327;35048;4;3483;468;30;8;3262;34719;4;3423;469;30;9;1511;19227;4;1595;435;27
15.02.19;15:55:00;1;577;7266;0;2;2592;21207;4;2730;373;38;3;1455;13951;4;1537;417;31;4;953;19446;5;993;206;24;5;3297;53333;4;1782;1430;422;686;33;6;2524;40865;4;1268;1269;591;571;30;7;3440;34772;4;3604;456;30;8;3396;34448;4;3555;464;30;9;1674;19102;4;1767;466;28
15.02.19;15:50:00;1;279;7215;0;2;2683;20991;4;2823;374;39;3;1505;13830;4;1590;414;31;4;947;19366;5;986;208;24;5;3522;53056;4;1900;1537;422;683;33;6;2691;40654;4;1385;1359;590;569;30;7;3564;34485;4;3737;458;30;8;3525;34164;4;3688;464;30;9;1855;18963;4;1963;502;29
15.02.19;15:45:00;1;278;7192;0;2;2825;20768;4;2976;382;39;3;1557;13705;4;1642;417;31;4;958;19287;5;997;204;25;5;3738;52762;4;2005;1647;420;676;34;6;2859;40429;4;1462;1428;586;565;30;7;3697;34189;4;3872;460;31;8;3640;33872;4;3814;468;31;9;1996;18809;4;2113;515;29
15.02.19;15:40:00;1;279;7168;0;2;2899;20533;4;3052;382;40;3;1600;13575;4;1688;413;32;4;971;19207;5;1012;200;25;5;3960;52449;4;2144;1731;420;676;34;6;3026;40189;4;1545;1547;587;562;30;7;3817;33880;4;4001;454;31;8;3770;33569;4;3954;464;31;9;2076;18643;4;2196;518;29
15.02.19;15:35:00;1;596;7145;0;2;2975;20291;4;3132;383;40;3;1637;13442;4;1724;412;32;4;1019;19126;5;1062;214;26;5;4153;52118;4;2243;1823;420;672;34;6;3170;39937;4;1616;1583;582;558;30;7;3907;33562;4;4101;453;31;8;3867;33254;4;4052;462;31;9;2127;18470;4;2250;509;30
15.02.19;15:30:00;1;320;7093;0;2;3107;20043;4;3272;382;41;3;1686;13306;4;1777;414;32;4;1120;19041;5;1167;215;26;5;4356;51772;4;2355;1921;419;671;34;6;3335;39671;4;1704;1676;584;563;30;7;4021;33238;4;4215;454;31;8;3977;32933;4;4164;457;31;9;2190;18295;4;2316;504;30
15.02.19;15:25:00;1;324;7066;0;2;3176;19785;4;3346;382;41;3;1724;13165;4;1816;414;33;4;1274;18948;5;1328;221;27;5;4570;51407;4;2480;2011;417;667;35;6;3503;39392;4;1820;1790;582;563;30;7;4133;32902;4;4337;456;32;8;4093;32602;4;4288;457;32;9;2254;18111;4;2385;506;31
15.02.19;15:20:00;1;279;7039;0;2;3258;19520;4;3432;381;42;3;1767;13022;4;1862;413;33;4;1406;18843;5;1464;225;27;5;4771;51025;4;2584;2104;417;669;35;6;3655;39100;4;1884;1858;582;560;31;7;4232;32558;4;4439;451;32;8;4189;32264;4;4392;460;32;9;2311;17924;4;2442;503;31
15.02.19;15:15:00;1;566;7016;0;2;3331;19249;4;3509;384;42;3;1789;12875;4;1885;406;33;4;1524;18726;5;1588;223;28;5;4938;50627;4;2687;2184;419;665;35;6;3780;38794;4;1934;1904;580;559;31;7;4351;32205;4;4550;450;32;8;4303;31911;4;4511;451;32;9;2375;17730;4;2509;503;31
15.02.19;15:10:00;1;279;6966;0;2;3371;18972;4;3555;382;42;3;1818;12726;4;1912;409;34;4;1618;18599;5;1685;231;29;5;5102;50214;4;2781;2257;414;659;35;6;3893;38479;4;1989;1952;576;557;31;7;4428;31843;4;4638;452;32;8;4386;31554;4;4596;460;32;9;2421;17535;4;2566;506;31
15.02.19;15:05:00;1;279;6942;0;2;3410;18691;4;3594;379;42;3;1844;12574;4;1939;412;34;4;1806;18464;5;1881;226;29;5;5248;49788;4;2866;2322;413;667;36;6;3996;38153;4;2045;1991;574;557;31;7;4508;31474;4;4723;451;33;8;4465;31189;4;4679;451;33;9;2459;17331;4;2604;504;32
15.02.19;15:00:00;1;332;6919;0;2;3475;18406;4;3660;383;42;3;1973;12420;4;2078;438;34;4;1949;18315;5;2031;227;30;5;5459;49349;4;2977;2419;411;662;36;6;4144;37819;4;2115;2081;574;554;31;7;4588;31099;4;4807;451;33;8;4545;30817;4;4767;452;33;9;2517;17126;4;2663;502;32
15.02.19;14:55:00;1;632;6891;0;2;3514;18118;4;3703;384;42;3;2109;12256;4;2224;458;35;4;2125;18152;5;2214;232;31;5;5629;48893;4;3062;2493;413;660;36;6;4273;37473;4;2201;2150;572;555;31;7;4631;30718;4;4850;440;33;8;4598;30438;4;4815;449;33;9;2546;16916;4;2693;504;32
15.02.19;14:50:00;1;343;6835;0;2;3568;17824;4;3759;380;42;3;2239;12081;4;2361;483;35;4;2245;17975;5;2339;228;31;5;5797;48423;4;3172;2565;412;657;36;6;4399;37116;4;2264;2207;570;555;31;7;4702;30330;4;4926;446;33;8;4662;30055;4;4884;449;33;9;2581;16704;4;2729;503;32
15.02.19;14:45:00;1;345;6806;0;2;3608;17527;4;3799;384;42;3;2329;11895;4;2458;491;35;4;2382;17788;5;2481;227;32;5;5924;47939;4;3233;2627;409;660;36;6;4515;36749;4;2296;2268;569;553;31;7;4754;29939;4;4982;446;33;8;4724;29666;4;4950;449;33;9;2616;16489;4;2763;501;33
15.02.19;14:40:00;1;358;6778;0;2;3647;17226;4;3843;384;42;3;2365;11701;4;2497;499;35;4;2504;17589;5;2607;226;32;5;6093;47444;4;3334;2700;409;657;37;6;4627;36371;4;2382;2336;569;554;31;7;4839;29542;4;5066;444;33;8;4795;29272;4;5029;450;33;9;2658;16271;4;2813;501;33
15.02.19;14:35:00;1;699;6747;0;2;3676;16922;4;3870;382;42;3;2381;11504;4;2516;498;34;4;2657;17382;5;2767;229;33;5;6219;46936;4;3419;2758;406;654;37;6;4741;35985;4;2441;2399;565;552;31;7;4874;29139;4;5110;446;34;8;4845;28874;4;5079;443;34;9;2678;16050;4;2834;496;33